DW9996 Weather Reports


time (UTC)temp
C
wind
direction
speed
KPH
gust
KPH
rain 1hr
cm
rain 24hr
cm
rain mn
cm
humidity
%
barometer
mb
20260509113050 9 5 8.0 16.1 0.00 0.00 0.00 57 1010.7
20260509111545 10 26 6.4 11.3 0.00 0.00 0.00 57 1010.3
20260509110033 10 17 6.4 14.5 0.00 0.00 0.00 57 1010.3
20260509104531 10 360 4.8 11.3 0.00 0.00 0.00 56 1010.3
20260509103029 10 31 6.4 16.1 0.00 0.00 0.00 55 1010.1
20260509101530 10 32 9.7 16.1 0.00 0.00 0.00 55 1009.9
20260509100023 11 11 8.0 11.3 0.00 0.00 0.00 55 1009.7
20260509094523 11 17 6.4 11.3 0.00 0.00 0.00 55 1009.7
20260509093018 10 360 4.8 8.0 0.00 0.00 0.00 58 1009.4
20260509091515 10 333 0.0 3.2 0.00 0.00 0.00 58 1009.4
20260509090011 11 360 3.2 8.0 0.00 0.00 0.00 55 1009.4
20260509084509 11 360 4.8 8.0 0.00 0.00 0.00 53 1009.2
20260509083008 12 111 1.6 3.2 0.00 0.00 0.00 54 1009.0
20260509081506 11 134 0.0 0.0 0.00 0.00 0.00 55 1008.9
20260509080001 12 135 1.6 4.8 0.00 0.00 0.00 54 1008.8
20260509074602 12 111 6.4 12.9 0.00 0.00 0.00 52 1008.7
20260509073106 12 103 6.4 12.9 0.00 0.00 0.00 51 1008.6
20260509071554 12 80 11.3 17.7 0.00 0.00 0.00 50 1008.4
20260509070051 12 80 9.7 14.5 0.00 0.00 0.00 50 1008.1
20260509064547 13 69 6.4 16.1 0.00 0.00 0.00 49 1008.0
20260509063043 13 62 8.0 17.7 0.00 0.00 0.00 47 1007.8
20260509061555 13 86 9.7 17.7 0.00 0.00 0.00 46 1007.8
20260509060037 13 94 9.7 17.7 0.00 0.00 0.00 45 1007.7
20260509054548 14 88 9.7 20.9 0.00 0.00 0.00 44 1007.7
20260509053052 14 360 12.9 22.5 0.00 0.00 0.00 43 1007.5
20260509051536 14 49 14.5 24.1 0.00 0.00 0.00 41 1007.2
20260509050036 15 5 11.3 17.7 0.00 0.00 0.00 39 1007.0
20260509044543 15 355 6.4 11.3 0.00 0.00 0.00 35 1006.7
20260509043035 15 337 6.4 12.9 0.00 0.00 0.00 32 1006.4
20260509041535 16 335 4.8 19.3 0.00 0.00 0.00 30 1006.4
20260509040036 16 355 4.8 11.3 0.00 0.00 0.00 29 1006.2
20260509034536 16 360 4.8 12.9 0.00 0.00 0.00 29 1006.0
20260509033033 17 360 4.8 11.3 0.00 0.00 0.00 28 1005.8
20260509031534 17 327 8.0 19.3 0.00 0.00 0.00 26 1005.6
20260509030032 17 355 6.4 11.3 0.00 0.00 0.00 27 1005.2
20260509024535 18 355 6.4 14.5 0.00 0.00 0.00 26 1005.0
20260509023034 18 344 9.7 17.7 0.00 0.00 0.00 25 1004.9
20260509021531 19 360 11.3 17.7 0.00 0.00 0.00 25 1004.8
20260509020036 20 340 14.5 20.9 0.00 0.00 0.00 24 1004.8
20260509014534 20 355 12.9 20.9 0.00 0.00 0.00 24 1004.7
20260509013029 20 293 11.3 20.9 0.00 0.00 0.00 25 1004.6
20260509011529 21 319 11.3 27.4 0.00 0.00 0.00 26 1004.6
20260509010028 21 346 17.7 29.0 0.00 0.00 0.00 25 1004.5
20260509004536 21 320 9.7 27.4 0.00 0.00 0.00 25 1004.4
20260509003028 21 329 9.7 19.3 0.00 0.00 0.00 25 1004.3
20260509001527 22 338 9.7 25.7 0.00 0.00 0.00 24 1004.3
20260509000026 23 303 11.3 27.4 0.00 0.00 0.00 22 1004.2
20260508234526 23 295 14.5 27.4 0.00 0.00 0.00 20 1004.2
20260508233026 23 283 14.5 30.6 0.00 0.00 0.00 20 1004.1
20260508231525 23 329 16.1 25.7 0.00 0.00 0.00 19 1004.1
20260508230023 23 304 14.5 32.2 0.00 0.00 0.00 18 1004.2
20260508224528 23 302 11.3 25.7 0.00 0.00 0.00 18 1004.3
20260508223035 23 309 12.9 30.6 0.00 0.00 0.00 19 1004.3
20260508221521 23 349 14.5 32.2 0.00 0.00 0.00 18 1004.4
20260508220025 24 298 16.1 30.6 0.00 0.00 0.00 19 1004.4
20260508214519 24 297 11.3 25.7 0.00 0.00 0.00 18 1004.5
20260508213017 23 269 17.7 33.8 0.00 0.00 0.00 17 1004.5
20260508211516 24 311 16.1 30.6 0.00 0.00 0.00 19 1004.5
20260508210015 24 309 14.5 30.6 0.00 0.00 0.00 20 1004.6
20260508204514 23 311 11.3 25.7 0.00 0.00 0.00 20 1004.5
20260508203010 22 294 8.0 19.3 0.00 0.00 0.00 25 1004.8
20260508201514 22 266 11.3 22.5 0.00 0.00 0.00 24 1005.0
20260508200008 23 263 16.1 30.6 0.00 0.00 0.00 23 1005.1
20260508194505 22 295 9.7 30.6 0.00 0.00 0.00 25 1005.1
20260508193004 23 268 12.9 30.6 0.00 0.00 0.00 24 1005.4
20260508191501 22 231 11.3 27.4 0.00 0.00 0.00 26 1005.7
20260508190058 22 297 14.5 27.4 0.00 0.00 0.00 27 1005.9
20260508184557 22 223 16.1 32.2 0.00 0.00 0.00 31 1006.1
20260508183054 22 254 8.0 20.9 0.00 0.00 0.00 32 1006.4
20260508181554 21 301 6.4 17.7 0.00 0.00 0.00 34 1006.6
20260508180055 21 229 9.7 22.5 0.00 0.00 0.00 34 1006.9
20260508174550 21 196 11.3 24.1 0.00 0.00 0.00 38 1007.1
20260508173044 20 207 9.7 24.1 0.00 0.00 0.00 39 1007.2
20260508171542 20 238 9.7 25.7 0.00 0.00 0.00 39 1007.5
20260508170040 19 252 11.3 29.0 0.00 0.00 0.00 43 1007.7
20260508164535 19 234 12.9 27.4 0.00 0.00 0.00 42 1007.9
20260508163036 18 238 14.5 24.1 0.00 0.00 0.00 45 1008.0
20260508161532 17 227 11.3 20.9 0.00 0.00 0.00 49 1008.2
20260508160025 17 219 11.3 20.9 0.00 0.00 0.00 50 1008.3
20260508154522 16 224 12.9 22.5 0.00 0.00 0.00 52 1008.6
20260508153017 15 232 9.7 17.7 0.00 0.00 0.00 56 1008.8
20260508151515 14 229 9.7 20.9 0.00 0.00 0.00 60 1009.0
20260508150018 13 220 9.7 20.9 0.00 0.00 0.00 60 1009.1
20260508144509 13 233 9.7 19.3 0.00 0.00 0.00 59 1009.2
20260508143010 12 221 11.3 19.3 0.00 0.00 0.00 61 1009.4
20260508141503 11 188 6.4 9.7 0.00 0.00 0.00 54 1009.6
20260508140107 11 169 4.8 6.4 0.00 0.00 0.00 54 1009.6
20260508134604 9 221 0.0 3.2 0.00 0.00 0.00 57 1009.7
20260508133055 8 221 0.0 3.2 0.00 0.00 0.00 62 1009.9
20260508131554 7 221 0.0 3.2 0.00 0.00 0.00 67 1010.0
20260508130052 5 257 0.0 3.2 0.00 0.00 0.00 67 1009.7
20260508124553 4 257 1.6 4.8 0.00 0.00 0.00 67 1009.8
20260508123052 4 257 0.0 4.8 0.00 0.00 0.00 65 1009.6
20260508121551 4 295 0.0 0.0 0.00 0.00 0.00 66 1009.7
20260508120051 3 308 1.6 6.4 0.00 0.00 0.00 68 1009.7
20260508114603 3 309 1.6 4.8 0.00 0.00 0.00 68 1009.7